KUIPER-00274

Last updated on Sun Mar 15 2026 00:02:06 GMT+0000 (Coordinated Universal Time)

1 67792U 26030AE 26073.58633191 .00022750 00000+0 78554-3 0 9993 2 67792 51.8840 196.3747 0018625 87.2376 273.0739 15.29699979 5834
UTC large
Height (km)
Speed (km/s)
/
Latitude / Longitude
Inclination (degrees)
Orbital Period (minutes)
Azimuth
Elevation
Range (km)
Doppler Factor

Next 0 passes for location: London (51.5072 / 0.1276)

Sorry there are no passes over London.